When you browse on this site, cookies collect data to enhance your experience and personalize the content and advertising you see.
Visit our Privacy Policy to learn more. By continuing to use the site, you agree to this use of cookies and data.
  • In Romania
  • List of Countries
  • For 7 days
  • Water Temperature
  • Satellite Maps
  • Weather Map
  • Weather Widgets
  • user-avatar
    Login

    Hourly Weather Arroyo

    Today, 18 July, Thursday

    Time Temperature Precipitation Wind Pressure Humidity
    00:00 +20°C° 0 mm 2 mps 728 mmHg 64%
    01:00 +21°C° 0 mm 1 mps 727 mmHg 67%
    02:00 +20°C° 0 mm 1 mps 727 mmHg 70%
    03:00 +20°C° 0 mm 1 mps 726 mmHg 72%
    04:00 +20°C° 0 mm 1 mps 727 mmHg 73%
    05:00 +20°C° 0 mm 1 mps 727 mmHg 73%
    06:00 +20°C° 0 mm 1 mps 727 mmHg 69%
    07:00 +23°C° 0 mm 1 mps 728 mmHg 59%
    08:00 +24°C° 0 mm 0 mps 728 mmHg 49%
    09:00 +28°C° 0 mm 0 mps 728 mmHg 39%
    10:00 +32°C° 0 mm 1 mps 728 mmHg 34%
    11:00 +34°C° 0 mm 1 mps 728 mmHg 29%
    12:00 +37°C° 0 mm 1 mps 728 mmHg 24%
    13:00 +38°C° 0 mm 2 mps 727 mmHg 21%
    14:00 +39°C° 0 mm 2 mps 727 mmHg 19%
    15:00 +40°C° 0 mm 2 mps 726 mmHg 16%
    16:00 +39°C° 0 mm 2 mps 726 mmHg 16%
    17:00 +39°C° 0 mm 2 mps 726 mmHg 16%
    18:00 +38°C° 0 mm 3 mps 726 mmHg 16%
    19:00 +35°C° 0 mm 3 mps 726 mmHg 21%
    20:00 +31°C° 0 mm 3 mps 726 mmHg 27%
    21:00 +28°C° 0 mm 3 mps 726 mmHg 32%
    22:00 +27°C° 0 mm 3 mps 726 mmHg 34%
    23:00 +26°C° 0 mm 3 mps 726 mmHg 36%

    Tomorrow, 19 July, Friday

    Time Temperature Precipitation Wind Pressure Humidity
    00:00 +25°C° 0 mm 2 mps 726 mmHg 38%
    01:00 +24°C° 0 mm 2 mps 726 mmHg 39%
    02:00 +23°C° 0 mm 1 mps 726 mmHg 40%
    03:00 +23°C° 0 mm 1 mps 726 mmHg 42%
    04:00 +23°C° 0 mm 1 mps 726 mmHg 42%
    05:00 +22°C° 0 mm 1 mps 726 mmHg 43%
    06:00 +22°C° 0 mm 1 mps 726 mmHg 43%
    07:00 +26°C° 0 mm 1 mps 726 mmHg 37%
    08:00 +29°C° 0 mm 1 mps 727 mmHg 31%
    09:00 +34°C° 0 mm 2 mps 727 mmHg 26%
    10:00 +35°C° 0 mm 1 mps 727 mmHg 22%
    11:00 +37°C° 0 mm 1 mps 727 mmHg 19%
    12:00 +41°C° 0 mm 1 mps 726 mmHg 15%
    13:00 +41°C° 0 mm 2 mps 726 mmHg 14%
    14:00 +42°C° 0 mm 2 mps 725 mmHg 13%
    15:00 +42°C° 0 mm 2 mps 725 mmHg 12%
    16:00 +43°C° 0 mm 3 mps 724 mmHg 12%
    17:00 +42°C° 0 mm 3 mps 724 mmHg 12%
    18:00 +42°C° 0 mm 4 mps 724 mmHg 13%
    19:00 +38°C° 0 mm 4 mps 724 mmHg 18%
    20:00 +35°C° 0 mm 4 mps 724 mmHg 23%
    21:00 +30°C° 0 mm 5 mps 725 mmHg 28%
    22:00 +29°C° 0 mm 4 mps 725 mmHg 32%
    23:00 +27°C° 0 mm 3 mps 725 mmHg 36%

    Day after tomorrow, 20 July, Saturday

    Time Temperature Precipitation Wind Pressure Humidity
    00:00 +25°C° 0 mm 2 mps 725 mmHg 39%
    01:00 +24°C° 0 mm 2 mps 725 mmHg 42%
    02:00 +23°C° 0 mm 2 mps 725 mmHg 45%
    03:00 +23°C° 0 mm 2 mps 725 mmHg 48%
    04:00 +21°C° 0 mm 2 mps 725 mmHg 50%
    05:00 +22°C° 0 mm 1 mps 725 mmHg 51%
    06:00 +22°C° 0 mm 1 mps 726 mmHg 53%
    07:00 +25°C° 0 mm 1 mps 726 mmHg 45%
    08:00 +28°C° 0 mm 2 mps 726 mmHg 36%
    09:00 +32°C° 0 mm 2 mps 727 mmHg 28%
    10:00 +35°C° 0 mm 2 mps 727 mmHg 24%
    11:00 +37°C° 0 mm 1 mps 727 mmHg 19%
    12:00 +41°C° 0 mm 1 mps 727 mmHg 14%
    13:00 +41°C° 0 mm 2 mps 727 mmHg 14%
    14:00 +42°C° 0 mm 2 mps 726 mmHg 13%
    15:00 +43°C° 0 mm 3 mps 726 mmHg 12%
    16:00 +43°C° 0 mm 3 mps 726 mmHg 12%
    17:00 +42°C° 0 mm 3 mps 726 mmHg 12%
    18:00 +42°C° 0 mm 3 mps 726 mmHg 12%
    19:00 +38°C° 0 mm 4 mps 726 mmHg 19%
    20:00 +35°C° 0 mm 4 mps 726 mmHg 25%
    21:00 +32°C° 0 mm 5 mps 727 mmHg 31%
    22:00 +29°C° 0 mm 4 mps 727 mmHg 39%
    23:00 +27°C° 0 mm 3 mps 727 mmHg 46%

    21 July, Sunday

    Time Temperature Precipitation Wind Pressure Humidity
    00:00 +25°C° 0 mm 3 mps 727 mmHg 53%
    01:00 +24°C° 0 mm 2 mps 727 mmHg 57%
    02:00 +23°C° 0 mm 2 mps 727 mmHg 60%
    03:00 +22°C° 0 mm 1 mps 727 mmHg 64%
    04:00 +22°C° 0 mm 1 mps 727 mmHg 63%
    05:00 +22°C° 0 mm 1 mps 727 mmHg 63%
    06:00 +22°C° 0 mm 1 mps 727 mmHg 63%
    07:00 +25°C° 0 mm 1 mps 728 mmHg 52%
    08:00 +29°C° 0 mm 1 mps 729 mmHg 41%
    09:00 +32°C° 0 mm 1 mps 729 mmHg 30%
    10:00 +34°C° 0 mm 1 mps 729 mmHg 26%
    11:00 +38°C° 0 mm 2 mps 729 mmHg 21%
    12:00 +40°C° 0 mm 2 mps 729 mmHg 17%
    13:00 +41°C° 0 mm 2 mps 729 mmHg 16%
    14:00 +43°C° 0 mm 3 mps 728 mmHg 15%
    15:00 +43°C° 0 mm 3 mps 728 mmHg 14%
    16:00 +43°C° 0 mm 3 mps 728 mmHg 14%
    17:00 +42°C° 0 mm 4 mps 727 mmHg 14%
    18:00 +42°C° 0 mm 4 mps 727 mmHg 14%
    19:00 +37°C° 0 mm 4 mps 727 mmHg 21%
    20:00 +34°C° 0 mm 4 mps 727 mmHg 27%
    21:00 +29°C° 0 mm 4 mps 728 mmHg 34%
    22:00 +28°C° 0 mm 3 mps 728 mmHg 37%
    23:00 +26°C° 0 mm 2 mps 728 mmHg 41%

    22 July, Monday

    Time Temperature Precipitation Wind Pressure Humidity
    00:00 +25°C° 0 mm 1 mps 728 mmHg 44%
    01:00 +24°C° 0 mm 1 mps 728 mmHg 46%
    02:00 +24°C° 0 mm 1 mps 728 mmHg 48%
    03:00 +23°C° 0 mm 1 mps 728 mmHg 49%
    04:00 +21°C° 0 mm 0 mps 728 mmHg 50%
    05:00 +21°C° 0 mm 0 mps 728 mmHg 50%
    06:00 +21°C° 0 mm 0 mps 728 mmHg 50%
    07:00 +26°C° 0 mm 1 mps 729 mmHg 43%
    08:00 +30°C° 0 mm 1 mps 729 mmHg 35%
    09:00 +34°C° 0 mm 2 mps 729 mmHg 27%
    10:00 +36°C° 0 mm 2 mps 729 mmHg 23%
    11:00 +38°C° 0 mm 2 mps 729 mmHg 19%
    12:00 +41°C° 0 mm 2 mps 729 mmHg 15%
    13:00 +41°C° 0 mm 2 mps 728 mmHg 14%
    14:00 +42°C° 0 mm 2 mps 728 mmHg 14%
    15:00 +43°C° 0 mm 3 mps 727 mmHg 13%
    16:00 +43°C° 0 mm 3 mps 727 mmHg 13%
    17:00 +43°C° 0 mm 3 mps 727 mmHg 13%
    18:00 +42°C° 0 mm 3 mps 727 mmHg 13%
    19:00 +38°C° 0 mm 3 mps 727 mmHg 19%
    20:00 +35°C° 0 mm 3 mps 727 mmHg 25%
    21:00 +30°C° 0 mm 4 mps 727 mmHg 32%
    22:00 +29°C° 0 mm 3 mps 727 mmHg 37%
    23:00 +27°C° 0 mm 2 mps 727 mmHg 41%

    23 July, Tuesday

    Time Temperature Precipitation Wind Pressure Humidity
    00:00 +26°C° 0 mm 2 mps 727 mmHg 46%
    01:00 +25°C° 0 mm 2 mps 727 mmHg 48%
    02:00 +24°C° 0 mm 1 mps 727 mmHg 50%
    03:00 +23°C° 0 mm 1 mps 726 mmHg 51%
    04:00 +22°C° 0 mm 1 mps 727 mmHg 51%
    05:00 +22°C° 0 mm 1 mps 727 mmHg 51%
    06:00 +20°C° 0 mm 0 mps 727 mmHg 51%
    07:00 +25°C° 0 mm 1 mps 727 mmHg 43%
    08:00 +28°C° 0 mm 1 mps 727 mmHg 35%
    09:00 +31°C° 0 mm 1 mps 728 mmHg 27%
    10:00 +33°C° 0 mm 1 mps 727 mmHg 25%
    11:00 +36°C° 0 mm 2 mps 727 mmHg 22%
    12:00 +38°C° 0 mm 2 mps 727 mmHg 20%
    13:00 +39°C° 0 mm 3 mps 726 mmHg 19%
    14:00 +39°C° 0 mm 3 mps 726 mmHg 18%
    15:00 +41°C° 0 mm 4 mps 725 mmHg 17%
    16:00 +40°C° 0 mm 4 mps 725 mmHg 19%
    17:00 +39°C° 0 mm 5 mps 725 mmHg 20%
    18:00 +37°C° 0 mm 5 mps 725 mmHg 21%
    19:00 +35°C° 0 mm 5 mps 725 mmHg 25%
    20:00 +32°C° 0 mm 4 mps 725 mmHg 29%
    21:00 +29°C° 0 mm 4 mps 725 mmHg 32%
    22:00 +27°C° 0 mm 3 mps 725 mmHg 34%
    23:00 +26°C° 0 mm 2 mps 725 mmHg 37%
    Show more